STARLINK-1974 (47629 NORAD) Tracking and Keplerian Element Data
This shows tracking and keplerian element data for the satellite.
Feedback or suggestion? Click here.
Element | Value |
Catalog | 47629 |
Name | STARLINK-1974 |
Epoch Orbit | 235 |
Epoch Day | 57.16667824 |
Epoch Year | 2021 |
RAAN | 52.0069 |
Inclination | 53.0495 |
Eccentricity | 0.0002681 |
Argument of Perigee | 278.207 |
Mean Anonmoly | 348.833 |
Mean Motion | 15.8650908 |
Decay Rate | 0.00076601 |
L1 | 1 47629U 21012K 21057.16667824 .00076601 00000-0 29729-3 0 9991 |
L2 | 2 47629 53.0495 52.0069 0002681 278.2070 348.8330 15.86509080 2352 |
Live tracking and technical data element details for STARLINK-1974 (NORAD 47629). STARLINK-1974 can be tracked NOW for your location showing map with azimuth and elevation plus other details from your city location.
Track the satellite on the map from your city or location and see movement details for azimuth, elevation, latitude, longitude, range, height, and movement on the map or in text.
IsCatalogInMostPopularTable: catalog: 47629, numindb: 1
Update: records affected: 1
GetName: 47629 STARLINK-1974
Hit Count: updated at: Fri, 26 Feb 2021 10:37:02 GMT